When you browse on this site, cookies collect data to enhance your experience and personalize the content and advertising you see.
Visit our Privacy Policy to learn more. By continuing to use the site, you agree to this use of cookies and data.
  • In Hungary
  • List of Countries
  • For 7 days
  • Water Temperature
  • Weather Map
  • News
  • Weather Widgets
  • user-avatar
    Login

    Hourly Weather Abbiategrasso

    Today, 20 August, Tuesday

    Time Temperature Precipitation Wind Pressure Humidity
    00:00 +24°C° 0 mm 1 mps 753 mmHg 71%
    01:00 +24°C° 0 mm 1 mps 753 mmHg 74%
    02:00 +23°C° 0 mm 1 mps 753 mmHg 75%
    03:00 +23°C° 0 mm 1 mps 753 mmHg 76%
    04:00 +23°C° 0 mm 1 mps 753 mmHg 77%
    05:00 +23°C° 0 mm 1 mps 753 mmHg 76%
    06:00 +23°C° 0 mm 1 mps 753 mmHg 75%
    07:00 +24°C° 0 mm 1 mps 753 mmHg 74%
    08:00 +25°C° 0 mm 1 mps 753 mmHg 68%
    09:00 +27°C° 0 mm 1 mps 753 mmHg 62%
    10:00 +29°C° 0 mm 1 mps 753 mmHg 56%
    11:00 +30°C° 0 mm 1 mps 753 mmHg 51%
    12:00 +31°C° 0 mm 1 mps 753 mmHg 47%
    13:00 +32°C° 0 mm 2 mps 753 mmHg 43%
    14:00 +32°C° 0 mm 2 mps 753 mmHg 42%
    15:00 +34°C° 0 mm 2 mps 752 mmHg 41%
    16:00 +34°C° 0 mm 2 mps 752 mmHg 40%
    17:00 +32°C° 0 mm 1 mps 752 mmHg 45%
    18:00 +30°C° 0 mm 1 mps 752 mmHg 50%
    19:00 +29°C° 0 mm 1 mps 752 mmHg 56%
    20:00 +28°C° 0.2 mm 1 mps 752 mmHg 59%
    21:00 +27°C° 0.2 mm 1 mps 753 mmHg 61%
    22:00 +26°C° 0.2 mm 2 mps 753 mmHg 64%
    23:00 +25°C° 0.4 mm 2 mps 753 mmHg 66%

    Tomorrow, 21 August, Wednesday

    Time Temperature Precipitation Wind Pressure Humidity
    00:00 +24°C° 0.4 mm 3 mps 753 mmHg 68%
    01:00 +22°C° 0.4 mm 3 mps 754 mmHg 70%
    02:00 +22°C° 0.2 mm 3 mps 753 mmHg 68%
    03:00 +21°C° 0.2 mm 3 mps 753 mmHg 66%
    04:00 +21°C° 0.2 mm 2 mps 753 mmHg 63%
    05:00 +21°C° 0 mm 2 mps 754 mmHg 62%
    06:00 +21°C° 0 mm 2 mps 754 mmHg 61%
    07:00 +21°C° 0 mm 2 mps 754 mmHg 59%
    08:00 +24°C° 0 mm 2 mps 754 mmHg 54%
    09:00 +26°C° 0 mm 2 mps 754 mmHg 48%
    10:00 +29°C° 0 mm 1 mps 754 mmHg 43%
    11:00 +30°C° 0 mm 1 mps 754 mmHg 40%
    12:00 +32°C° 0 mm 1 mps 753 mmHg 38%
    13:00 +33°C° 0 mm 1 mps 753 mmHg 36%
    14:00 +33°C° 0 mm 1 mps 753 mmHg 36%
    15:00 +33°C° 0 mm 1 mps 753 mmHg 35%
    16:00 +33°C° 0 mm 1 mps 753 mmHg 35%
    17:00 +32°C° 0 mm 1 mps 753 mmHg 40%
    18:00 +31°C° 0 mm 1 mps 753 mmHg 45%
    19:00 +29°C° 0 mm 1 mps 753 mmHg 50%
    20:00 +28°C° 0.2 mm 1 mps 754 mmHg 54%
    21:00 +27°C° 0.2 mm 2 mps 754 mmHg 58%
    22:00 +26°C° 0.2 mm 2 mps 754 mmHg 62%
    23:00 +25°C° 0.5 mm 2 mps 754 mmHg 66%

    Day after tomorrow, 22 August, Thursday

    Time Temperature Precipitation Wind Pressure Humidity
    00:00 +24°C° 0.5 mm 2 mps 755 mmHg 70%
    01:00 +24°C° 0.5 mm 2 mps 755 mmHg 74%
    02:00 +23°C° 0.3 mm 2 mps 754 mmHg 75%
    03:00 +23°C° 0.3 mm 1 mps 754 mmHg 76%
    04:00 +23°C° 0.3 mm 1 mps 754 mmHg 78%
    05:00 +23°C° 0.3 mm 1 mps 754 mmHg 77%
    06:00 +23°C° 0.3 mm 1 mps 754 mmHg 77%
    07:00 +24°C° 0.3 mm 1 mps 755 mmHg 76%
    08:00 +25°C° 0.1 mm 1 mps 755 mmHg 70%
    09:00 +27°C° 0.1 mm 1 mps 755 mmHg 64%
    10:00 +29°C° 0.1 mm 1 mps 755 mmHg 58%
    11:00 +30°C° 0 mm 1 mps 754 mmHg 54%
    12:00 +31°C° 0 mm 1 mps 754 mmHg 49%
    13:00 +33°C° 0 mm 1 mps 754 mmHg 45%
    14:00 +33°C° 0 mm 1 mps 754 mmHg 44%
    15:00 +33°C° 0 mm 1 mps 754 mmHg 43%
    16:00 +33°C° 0 mm 1 mps 753 mmHg 43%
    17:00 +32°C° 0 mm 1 mps 753 mmHg 47%
    18:00 +30°C° 0 mm 1 mps 754 mmHg 51%
    19:00 +29°C° 0 mm 1 mps 754 mmHg 56%
    20:00 +28°C° 0.5 mm 1 mps 754 mmHg 59%
    21:00 +27°C° 0.5 mm 1 mps 755 mmHg 62%
    22:00 +26°C° 0.5 mm 1 mps 755 mmHg 65%
    23:00 +26°C° 1.3 mm 1 mps 755 mmHg 68%

    23 August, Friday

    Time Temperature Precipitation Wind Pressure Humidity
    00:00 +25°C° 1.3 mm 2 mps 755 mmHg 71%
    01:00 +25°C° 1.3 mm 2 mps 755 mmHg 74%
    02:00 +24°C° 0.4 mm 2 mps 755 mmHg 75%
    03:00 +24°C° 0.4 mm 1 mps 755 mmHg 76%
    04:00 +24°C° 0.4 mm 1 mps 755 mmHg 77%
    05:00 +24°C° 0.6 mm 1 mps 755 mmHg 77%
    06:00 +24°C° 0.6 mm 1 mps 755 mmHg 76%
    07:00 +24°C° 0.6 mm 1 mps 755 mmHg 76%
    08:00 +26°C° 0 mm 1 mps 755 mmHg 69%
    09:00 +28°C° 0 mm 1 mps 755 mmHg 61%
    10:00 +29°C° 0 mm 1 mps 755 mmHg 54%
    11:00 +31°C° 0 mm 1 mps 755 mmHg 50%
    12:00 +32°C° 0 mm 1 mps 755 mmHg 45%
    13:00 +33°C° 0 mm 1 mps 755 mmHg 41%
    14:00 +33°C° 0 mm 1 mps 754 mmHg 40%
    15:00 +34°C° 0 mm 2 mps 754 mmHg 40%
    16:00 +34°C° 0 mm 2 mps 754 mmHg 39%
    17:00 +32°C° 0.1 mm 1 mps 754 mmHg 44%
    18:00 +31°C° 0.1 mm 1 mps 754 mmHg 48%
    19:00 +29°C° 0.1 mm 1 mps 754 mmHg 52%
    20:00 +28°C° 0.7 mm 1 mps 754 mmHg 57%
    21:00 +27°C° 0.7 mm 2 mps 755 mmHg 61%
    22:00 +26°C° 0.7 mm 2 mps 755 mmHg 66%
    23:00 +25°C° 0.6 mm 2 mps 755 mmHg 68%

    24 August, Saturday

    Time Temperature Precipitation Wind Pressure Humidity
    00:00 +25°C° 0.6 mm 2 mps 755 mmHg 70%
    01:00 +24°C° 0.6 mm 2 mps 755 mmHg 72%
    02:00 +24°C° 0 mm 1 mps 755 mmHg 73%
    03:00 +24°C° 0 mm 1 mps 755 mmHg 74%
    04:00 +23°C° 0 mm 1 mps 754 mmHg 75%
    05:00 +23°C° 0 mm 1 mps 754 mmHg 75%
    06:00 +24°C° 0 mm 1 mps 755 mmHg 74%
    07:00 +24°C° 0 mm 1 mps 755 mmHg 74%
    08:00 +26°C° 0 mm 1 mps 754 mmHg 67%
    09:00 +28°C° 0 mm 1 mps 754 mmHg 60%
    10:00 +30°C° 0 mm 1 mps 754 mmHg 53%
    11:00 +31°C° 0 mm 1 mps 754 mmHg 48%
    12:00 +32°C° 0 mm 1 mps 754 mmHg 44%
    13:00 +33°C° 0 mm 1 mps 753 mmHg 39%
    14:00 +34°C° 0 mm 1 mps 753 mmHg 39%
    15:00 +35°C° 0 mm 2 mps 753 mmHg 39%
    16:00 +35°C° 0 mm 2 mps 753 mmHg 39%
    17:00 +32°C° 0 mm 2 mps 752 mmHg 44%
    18:00 +31°C° 0 mm 1 mps 752 mmHg 48%
    19:00 +29°C° 0 mm 1 mps 752 mmHg 53%
    20:00 +29°C° 0 mm 1 mps 753 mmHg 55%
    21:00 +28°C° 0 mm 1 mps 753 mmHg 56%
    22:00 +27°C° 0 mm 1 mps 753 mmHg 58%
    23:00 +26°C° 0.3 mm 1 mps 753 mmHg 61%

    25 August, Sunday

    Time Temperature Precipitation Wind Pressure Humidity
    00:00 +26°C° 0.3 mm 1 mps 753 mmHg 64%
    01:00 +25°C° 0.3 mm 1 mps 753 mmHg 67%
    02:00 +25°C° 0.3 mm 1 mps 753 mmHg 68%
    03:00 +24°C° 0.3 mm 1 mps 753 mmHg 70%
    04:00 +24°C° 0.3 mm 1 mps 752 mmHg 71%
    05:00 +24°C° 0.1 mm 1 mps 753 mmHg 71%
    06:00 +24°C° 0.1 mm 1 mps 753 mmHg 71%
    07:00 +24°C° 0.1 mm 1 mps 753 mmHg 71%
    08:00 +26°C° 0 mm 1 mps 753 mmHg 65%
    09:00 +28°C° 0 mm 1 mps 753 mmHg 59%
    10:00 +28°C° 0 mm 0 mps 753 mmHg 53%
    11:00 +31°C° 0 mm 1 mps 753 mmHg 49%
    12:00 +32°C° 0 mm 1 mps 753 mmHg 45%
    13:00 +34°C° 0 mm 1 mps 752 mmHg 42%
    14:00 +34°C° 0 mm 1 mps 752 mmHg 41%
    15:00 +34°C° 0 mm 1 mps 752 mmHg 39%
    16:00 +35°C° 0 mm 2 mps 752 mmHg 38%
    17:00 +33°C° 0 mm 1 mps 752 mmHg 43%
    18:00 +31°C° 0 mm 1 mps 752 mmHg 47%
    19:00 +30°C° 0 mm 1 mps 752 mmHg 52%
    20:00 +29°C° 0 mm 1 mps 752 mmHg 53%
    21:00 +28°C° 0 mm 1 mps 753 mmHg 55%
    22:00 +27°C° 0 mm 1 mps 753 mmHg 57%
    23:00 +27°C° 0 mm 1 mps 753 mmHg 59%
    Show more